Wind_Speed
15 15 16 16 16 16 17 18 18 19 19 20 20 20 21 22 22 23 24 25 25 25 26 26 27 27 28 28 29 30 30 30 31 31 32 32 32 32
16 16 16 16 17 18 18 19 19 19 20 21 22 21 22 23 24 25 26 26 26 27 27 28 28 29 30 30 31 31 31 32 32 33 33 33 34 34
17 17 17 18 18 19 19 20 20 20 21 22 23 23 24 25 26 26 27 27 27 28 28 29 29 30 31 31 32 32 32 33 34 33 33 34 34 35
18 18 19 19 19 20 20 20 21 21 22 23 24 24 25 26 26 27 28 28 29 29 29 30 31 32 33 32 33 33 33 33 33 34 34 35 35 35
19 19 20 20 20 21 21 22 22 23 23 24 25 26 27 27 27 29 29 29 30 30 30 31 31 32 32 32 32 33 33 33 34 35 35 35 36 36
20 21 21 21 21 22 23 23 24 24 25 26 27 27 28 28 29 29 29 29 29 30 30 30 31 32 32 32 33 33 33 34 35 35 36 35 36 36
21 21 21 22 23 24 24 24 24 25 26 27 28 29 29 29 29 29 29 29 29 30 30 30 31 32 33 33 34 34 35 35 36 36 37 37 37 37
22 22 23 23 24 25 25 25 26 27 27 28 28 29 30 29 29 29 29 30 30 31 32 32 33 33 34 35 35 35 35 36 37 37 37 38 38 38
22 23 24 25 25 26 26 27 27 27 28 29 29 29 29 29 29 30 31 31 32 33 34 34 34 34 34 34 35 35 35 36 37 37 37 37 38 38
24 24 25 26 27 27 27 28 28 28 28 30 30 30 29 30 30 31 31 32 32 33 33 34 34 35 35 35 36 36 36 37 37 37 37 37 38 38
25 26 27 27 28 28 28 29 29 30 31 30 30 30 30 30 31 32 32 33 33 33 33 34 35 35 35 35 36 36 36 36 36 37 37 37 37 37
26 27 27 28 28 29 30 30 31 31 31 30 30 30 30 31 31 32 33 33 34 34 34 34 35 36 36 36 36 36 36 36 37 36 37 37 37 37
28 28 29 29 29 30 31 31 32 32 32 32 33 32 32 32 33 33 33 33 33 34 34 35 36 37 36 36 36 36 36 36 36 36 36 37 37 37
29 29 30 31 31 32 33 33 33 33 33 33 33 33 33 33 34 34 34 34 34 34 34 35 36 36 36 36 35 35 35 36 36 36 36 36 35 36
31 31 32 32 32 32 33 33 33 34 34 34 34 33 34 34 34 34 34 34 35 35 35 35 35 35 35 35 35 35 35 34 34 34 34 34 35 35
33 33 33 33 33 32 33 33 34 34 34 34 34 34 34 34 34 34 34 35 34 34 34 34 34 34 34 34 34 34 34 34 33 33 34 35 35 35
34 34 34 34 34 34 35 35 35 35 35 35 34 34 34 34 34 35 35 34 34 34 34 34 34 34 33 34 33 33 34 34 34 34 34 34 34 34
36 36 36 36 36 36 36 37 36 36 35 35 35 34 35 35 34 34 34 34 34 34 34 34 35 35 34 34 34 34 33 33 33 33 33 33 33 33
38 38 38 38 38 38 37 37 37 36 35 35 35 34 34 33 34 34 34 34 34 33 33 34 35 34 33 34 34 33 33 32 32 32 33 33 32 32
39 39 39 39 38 38 37 37 36 35 35 34 33 33 33 34 34 34 34 34 33 34 34 34 34 33 33 33 32 32 32 32 32 32 33 32 31 31
40 39 39 38 38 37 37 36 35 35 34 33 33 33 33 34 34 34 35 34 33 34 34 33 33 33 32 32 32 31 31 32 32 32 31 30 30 29
39 38 37 36 36 36 35 35 34 32 32 32 32 33 34 34 34 33 33 33 33 33 33 33 32 32 32 32 32 32 31 31 31 30 29 29 28 28
36 36 35 35 34 34 33 32 32 31 32 32 33 33 34 34 34 33 33 33 32 32 32 32 31 31 31 31 31 30 30 30 30 29 28 28 28 27
Wind_Direction
272 274 275 275 276 279 282 283 283 284 284 284 285 284 286 288 289 289 289 289 288 287 287 287 288 288 290 290 292 292 293 293 293 293 293 292 292 293
273 277 278 280 281 281 283 283 283 282 284 285 284 284 288 289 288 289 290 288 286 287 287 288 289 290 291 292 292 293 293 293 292 293 293 292 292 293
277 277 278 282 284 285 285 285 284 284 284 285 284 285 287 289 289 289 289 288 287 288 288 289 289 291 291 293 294 294 293 293 293 293 293 294 294 294
278 280 281 282 283 285 285 285 286 288 287 287 287 287 289 290 289 290 290 289 289 288 287 288 290 290 291 292 292 293 294 294 294 295 296 296 295 295
279 280 282 282 283 285 285 285 286 287 288 289 288 288 288 289 289 291 291 292 291 290 289 291 291 291 292 294 295 295 295 295 296 296 297 297 296 296
281 283 283 282 283 284 285 286 287 288 288 288 289 290 290 290 292 292 291 292 292 291 291 292 292 292 293 294 294 295 295 296 296 297 297 297 296 296
283 283 284 284 284 284 286 288 289 288 288 289 290 291 292 291 291 292 291 291 291 291 291 291 291 292 294 294 295 295 295 295 296 296 296 296 296 295
285 285 285 285 286 286 287 288 289 288 289 290 291 291 290 290 290 292 292 292 291 290 290 291 292 293 293 294 296 296 296 296 296 296 296 296 296 296
287 288 288 286 287 288 288 290 292 291 291 291 292 291 290 289 289 291 291 291 292 292 291 293 293 293 293 294 295 296 296 296 296 296 296 296 296 297
287 288 288 288 287 288 290 291 292 293 292 292 291 291 291 291 291 291 291 293 294 294 293 292 292 292 293 294 295 297 297 297 297 296 297 298 298 299
288 289 289 289 289 289 291 292 293 292 292 292 291 291 290 290 291 291 292 293 293 294 294 294 293 293 295 295 296 297 297 297 297 297 297 299 300 299
289 290 290 290 290 290 291 292 291 291 291 292 291 291 290 290 292 292 291 292 294 294 294 293 294 295 296 296 296 296 297 297 298 298 299 300 300 299
288 289 289 290 290 290 291 291 291 291 291 291 291 291 290 290 292 292 292 293 293 294 293 293 294 295 296 295 295 296 298 298 298 299 300 300 300 301
289 289 290 290 290 289 290 290 290 290 290 291 290 290 291 291 291 291 291 293 293 293 293 294 295 296 296 296 296 297 298 299 300 300 300 300 300 301
290 291 291 291 291 290 290 290 291 290 290 290 289 289 290 290 290 290 291 293 294 295 295 296 295 295 296 297 298 298 298 299 300 300 301 301 302 302
291 292 292 292 291 291 291 291 290 289 289 289 288 288 289 290 290 290 292 294 295 295 295 295 295 295 296 297 297 298 298 298 299 299 300 302 303 303
291 292 291 291 290 290 290 290 290 289 289 289 288 288 288 289 289 291 293 293 294 294 294 293 293 294 295 297 297 296 296 297 298 300 301 302 303 304
291 291 291 291 290 289 290 290 290 289 288 288 287 287 287 289 291 293 293 292 292 292 292 293 294 294 294 295 296 296 296 297 299 300 302 303 303 304
289 290 291 290 289 289 289 290 290 288 286 287 287 287 288 289 290 290 290 290 291 290 291 293 293 293 294 295 297 297 297 297 298 300 302 303 304 304
288 288 289 289 289 288 289 289 288 287 286 285 286 287 288 289 289 288 289 290 291 292 293 293 292 293 295 296 296 296 297 297 298 300 301 302 305 306
287 287 287 288 289 288 288 287 286 285 285 285 286 288 288 289 287 288 289 290 291 293 293 293 292 293 295 295 295 296 296 297 298 300 302 303 305 306
287 287 287 288 288 287 286 286 286 285 285 287 288 288 287 288 288 288 289 290 290 291 292 292 293 294 295 295 296 296 296 296 298 300 302 303 305 306
286 287 287 287 286 285 285 285 285 285 286 288 288 288 288 288 288 287 288 290 291 290 291 292 293 293 294 295 296 295 296 297 298 299 301 302 304 306
Height
5894 5894 5894 5894 5894 5894 5894 5893 5893 5893 5892 5892 5891 5891 5890 5889 5888 5887 5886 5885 5884 5883 5882 5880 5879 5878 5876 5874 5873 5871 5869 5867 5864 5862 5860 5858 5855 5853
5890 5890 5890 5890 5890 5890 5889 5889 5888 5888 5887 5886 5886 5885 5884 5884 5882 5881 5880 5879 5878 5876 5875 5874 5872 5871 5869 5867 5865 5863 5861 5859 5856 5854 5852 5849 5847 5844
5886 5886 5886 5885 5885 5885 5884 5884 5883 5882 5882 5881 5879 5879 5879 5878 5876 5875 5873 5872 5871 5870 5868 5867 5865 5863 5862 5860 5858 5855 5853 5851 5848 5846 5843 5840 5838 5835
5882 5882 5881 5881 5880 5880 5879 5878 5878 5877 5876 5875 5874 5873 5872 5871 5869 5868 5867 5865 5864 5862 5861 5859 5858 5856 5853 5851 5849 5847 5845 5842 5840 5837 5834 5832 5829 5826
5877 5877 5876 5876 5875 5875 5874 5873 5872 5871 5871 5869 5868 5867 5866 5864 5863 5861 5860 5858 5857 5855 5853 5851 5850 5848 5846 5843 5841 5839 5836 5834 5831 5828 5825 5822 5819 5816
5873 5872 5871 5870 5870 5869 5868 5867 5866 5865 5864 5863 5862 5860 5859 5857 5856 5854 5852 5850 5849 5847 5846 5844 5842 5840 5838 5835 5833 5831 5828 5825 5822 5819 5816 5813 5810 5807
5867 5867 5866 5865 5864 5863 5862 5861 5860 5859 5857 5856 5855 5853 5852 5849 5848 5846 5845 5843 5841 5839 5838 5836 5834 5832 5830 5827 5824 5822 5819 5816 5813 5810 5807 5804 5800 5797
5862 5861 5860 5859 5858 5857 5856 5855 5853 5852 5851 5849 5848 5846 5844 5842 5840 5839 5837 5835 5834 5832 5830 5828 5826 5824 5821 5818 5815 5813 5810 5807 5803 5800 5797 5793 5790 5786
5856 5855 5854 5853 5852 5851 5849 5848 5846 5844 5843 5842 5840 5838 5836 5834 5833 5831 5829 5828 5826 5824 5821 5819 5817 5815 5812 5809 5806 5803 5800 5797 5794 5790 5787 5783 5780 5776
5850 5849 5848 5847 5845 5844 5842 5841 5839 5837 5836 5834 5832 5830 5829 5827 5825 5824 5822 5819 5817 5815 5813 5810 5808 5805 5803 5800 5797 5794 5791 5787 5784 5780 5777 5773 5769 5765
5844 5843 5841 5840 5838 5837 5835 5833 5832 5830 5828 5826 5824 5822 5821 5819 5817 5815 5813 5811 5808 5806 5804 5801 5799 5796 5793 5790 5787 5784 5781 5777 5774 5770 5767 5763 5759 5755
5837 5836 5834 5832 5831 5829 5827 5826 5824 5822 5820 5818 5816 5814 5812 5810 5808 5807 5805 5802 5800 5797 5795 5792 5789 5787 5784 5781 5778 5774 5771 5768 5764 5760 5757 5753 5750 5746
5830 5828 5827 5825 5823 5821 5819 5818 5816 5814 5812 5810 5807 5805 5804 5802 5800 5798 5795 5793 5791 5788 5785 5783 5780 5777 5774 5771 5768 5764 5761 5758 5755 5751 5747 5743 5740 5736
5822 5821 5819 5817 5815 5813 5811 5809 5807 5804 5802 5800 5798 5796 5795 5793 5791 5788 5786 5784 5781 5779 5776 5773 5770 5767 5764 5761 5758 5755 5752 5748 5745 5741 5738 5734 5730 5726
5814 5812 5810 5808 5806 5804 5802 5800 5797 5795 5793 5791 5789 5787 5786 5784 5782 5779 5777 5774 5772 5769 5766 5763 5761 5757 5755 5752 5749 5746 5743 5739 5736 5732 5729 5725 5721 5717
5805 5803 5801 5799 5797 5795 5793 5790 5788 5786 5784 5782 5780 5778 5776 5774 5772 5770 5767 5765 5762 5759 5757 5754 5751 5748 5745 5742 5740 5736 5733 5730 5727 5724 5720 5716 5712 5708
5796 5794 5792 5790 5788 5785 5783 5781 5779 5776 5774 5772 5770 5768 5766 5764 5762 5760 5758 5755 5753 5750 5747 5745 5742 5739 5736 5733 5730 5727 5724 5721 5718 5714 5711 5707 5704 5699
5786 5784 5782 5780 5778 5776 5773 5771 5769 5767 5764 5762 5760 5758 5756 5754 5752 5750 5748 5746 5743 5740 5738 5736 5733 5730 5727 5724 5721 5718 5715 5712 5709 5705 5702 5699 5695 5691
5776 5774 5772 5769 5767 5765 5763 5761 5759 5756 5754 5752 5750 5748 5746 5744 5742 5740 5738 5736 5733 5731 5729 5726 5724 5721 5718 5715 5712 5709 5706 5703 5700 5696 5693 5690 5686 5682
5765 5763 5761 5759 5756 5754 5752 5750 5748 5746 5744 5742 5740 5738 5736 5734 5732 5730 5728 5726 5724 5721 5719 5716 5714 5711 5709 5706 5703 5700 5697 5694 5691 5688 5685 5681 5678 5674
5754 5752 5750 5747 5745 5743 5742 5739 5737 5736 5734 5732 5730 5728 5726 5724 5722 5720 5718 5716 5714 5711 5709 5707 5704 5701 5699 5696 5694 5691 5688 5685 5682 5679 5676 5672 5669 5666
5743 5741 5738 5736 5735 5733 5731 5729 5727 5725 5724 5722 5720 5718 5716 5714 5712 5710 5708 5706 5704 5702 5699 5697 5694 5692 5689 5687 5684 5682 5679 5676 5673 5670 5667 5664 5661 5658
5731 5730 5728 5726 5724 5722 5720 5719 5717 5715 5714 5712 5710 5708 5706 5704 5702 5700 5698 5696 5694 5692 5690 5688 5685 5683 5680 5678 5675 5673 5670 5668 5665 5662 5659 5656 5653 5650